Weather History for KJKL - November, 2012

Change the Weather History Date:

Friday, November 23, 2012

  Actual Average Record
Temperature  
Mean Temperature 45 °F 46 °F  
Max Temperature 54 °F 54 °F 75 °F (1999)
Min Temperature 36 °F 37 °F 23 °F (1984)
Degree Days  
Heating Degree Days 20 20  
Month to date heating degree days 409 356  
Since 1 July heating degree days 775 653  
Cooling Degree Days 0 0  
Month to date cooling degree days 0 0  
Year to date cooling degree days 1318 1150  
Moisture  
Dew Point 39 °F    
Average Humidity 71    
Maximum Humidity 93    
Minimum Humidity 49    
Precipitation  
Precipitation 0.14 in 0.13 in 0.71 in (2010)
Month to date precipitation 0.72 2.98  
Year to date precipitation 45.48 43.18  
Snow  
Snow 0.00 in 0.10 in - ()
Month to date snowfall T 0.3  
Since 1 July snowfall 1.1 0.4  
Since 1 September snowfall 1.1 0.4  
Snow Depth 0.00 in    
Sea Level Pressure  
Sea Level Pressure 30.05 in    
Wind  
Wind Speed 7 mph (WSW)    
Max Wind Speed 16 mph    
Max Gust Speed 28 mph    
Visibility 7 miles    
Events Rain    
T = Trace of Precipitation, MM = Missing Value Source: NWS Daily Summary

Daily Weather History Graph

Daily Weather History Graph

Search for Another Location

Airport or City:

Trip Planner

Search our weather history database for the weather conditions in past years. The results will help you decide how hot, cold, wet, or windy it might be!

Date:

Astronomy

Nov. 23, 2012 Rise Set
Actual Time 7:21 AM EST 5:17 PM EST
Civil Twilight 6:53 AM EST 5:45 PM EST
Nautical Twilight 6:21 AM EST 6:17 PM EST
Astronomical Twilight 5:50 AM EST 6:49 PM EST
Moon 2:27 PM EST (11/23) 2:44 AM EST (11/23)
Length of Visible Light 10h 52m
Length of Day
9h 55m
Waxing Gibbous, 79% of the Moon is Illuminated
Nov 23
Waxing Gibbous
Nov 28
Full
Dec 6
Last Quarter
Dec 13
New
Dec 20
First Quarter

Hourly Weather History & Observations

Time (EST) Temp. Windchill Dew Point Humidity Pressure Visibility Wind Dir Wind Speed Gust Speed Precip Events Conditions
12:53 AM 50.0 °F - 35.1 °F 57% 30.09 in 10.0 mi SW 4.6 mph - N/A   Clear
1:53 AM 51.1 °F - 36.0 °F 56% 30.09 in 10.0 mi Variable 4.6 mph - N/A   Clear
2:53 AM 48.9 °F - 36.0 °F 61% 30.09 in 10.0 mi SW 4.6 mph - N/A   Clear
3:53 AM 51.1 °F - 37.0 °F 59% 30.07 in 10.0 mi Variable 3.5 mph - N/A   Clear
4:53 AM 51.1 °F - 37.0 °F 59% 30.06 in 10.0 mi Variable 4.6 mph - N/A   Clear
5:53 AM 50.0 °F - 37.9 °F 63% 30.05 in 10.0 mi SW 5.8 mph - N/A   Clear
6:53 AM 52.0 °F - 37.9 °F 59% 30.03 in 10.0 mi SW 5.8 mph - N/A   Mostly Cloudy
7:53 AM 51.1 °F - 37.9 °F 61% 30.02 in 10.0 mi Variable 3.5 mph - N/A   Clear
8:53 AM 54.0 °F - 39.0 °F 57% 30.02 in 10.0 mi Variable 5.8 mph - N/A   Overcast
9:53 AM 54.0 °F - 39.9 °F 59% 30.01 in 10.0 mi Variable 4.6 mph - N/A   Overcast
10:53 AM 48.9 °F - 46.0 °F 90% 30.03 in 2.5 mi WSW 6.9 mph - 0.04 in Rain Light Rain
11:05 AM 48.2 °F - 46.4 °F 93% 30.03 in 1.5 mi SW 6.9 mph - 0.02 in Rain Rain
11:16 AM 48.2 °F - 46.4 °F 93% 30.03 in 2.0 mi Variable 5.8 mph - 0.04 in Rain Rain
11:24 AM 48.2 °F - 46.4 °F 93% 30.03 in 1.5 mi Variable 4.6 mph - 0.06 in Rain Rain
11:31 AM 48.2 °F - 46.4 °F 93% 30.03 in 2.0 mi Variable 4.6 mph - 0.07 in Rain Light Rain
11:35 AM 48.2 °F - 46.4 °F 93% 30.03 in 3.0 mi SW 6.9 mph - 0.07 in Rain Light Rain
11:44 AM 48.2 °F - 46.4 °F 93% 30.03 in 1.8 mi Variable 5.8 mph - 0.07 in Rain Light Rain
11:53 AM 48.0 °F - 46.0 °F 93% 30.02 in 1.5 mi WSW 9.2 mph - 0.08 in Rain Light Rain
11:57 AM 48.2 °F - 46.4 °F 93% 30.02 in 2.0 mi WSW 8.1 mph - 0.00 in Rain Light Rain
12:10 PM 48.2 °F - 46.4 °F 93% 30.01 in 3.0 mi Variable 6.9 mph - 0.01 in Rain Light Rain
12:26 PM 48.2 °F - 46.4 °F 93% 30.01 in 1.8 mi Variable 4.6 mph - 0.01 in Rain Light Rain
12:33 PM 48.2 °F - 46.4 °F 93% 30.02 in 1.2 mi West 12.7 mph 23.0 mph 0.01 in Rain Light Rain
12:41 PM 46.4 °F 41.9 °F 44.6 °F 93% 30.02 in 2.0 mi West 9.2 mph 23.0 mph 0.02 in Rain Light Rain
12:47 PM 46.4 °F 42.9 °F 44.6 °F 93% 30.02 in 4.0 mi WSW 6.9 mph 18.4 mph N/A Rain Light Rain
12:53 PM 46.9 °F - 45.0 °F 93% 30.02 in 6.0 mi WSW 5.8 mph - 0.02 in Rain Light Rain
1:07 PM 46.4 °F - 44.6 °F 93% 30.01 in 6.0 mi Calm Calm - 0.00 in Rain Light Rain
1:36 PM 46.4 °F - 44.6 °F 93% 30.02 in 7.0 mi Calm Calm - 0.00 in   Overcast
1:53 PM 48.0 °F - 45.0 °F 89% 30.01 in 9.0 mi Variable 6.9 mph - 0.00 in   Overcast
2:06 PM 46.4 °F 41.5 °F 42.8 °F 87% 30.01 in 10.0 mi WSW 10.4 mph 16.1 mph N/A   Overcast
2:53 PM 50.0 °F - 35.1 °F 57% 30.01 in 10.0 mi Variable 5.8 mph 21.9 mph N/A   Clear
3:53 PM 48.9 °F - 30.0 °F 48% 30.03 in 10.0 mi West 8.1 mph - N/A   Clear
4:53 PM 46.9 °F - 28.0 °F 48% 30.05 in 10.0 mi Variable 6.9 mph 20.7 mph N/A   Clear
5:53 PM 45.0 °F 40.1 °F 27.0 °F 49% 30.08 in 10.0 mi West 9.2 mph - N/A   Clear
6:53 PM 44.1 °F 39.0 °F 27.0 °F 51% 30.09 in 10.0 mi WNW 9.2 mph 17.3 mph N/A   Mostly Cloudy
7:53 PM 43.0 °F 37.2 °F 28.0 °F 56% 30.12 in 10.0 mi WNW 10.4 mph 17.3 mph N/A   Mostly Cloudy
8:53 PM 39.0 °F 32.8 °F 26.1 °F 60% 30.13 in 10.0 mi WNW 9.2 mph 20.7 mph N/A   Mostly Cloudy
9:53 PM 37.0 °F 30.4 °F 25.0 °F 62% 30.13 in 10.0 mi WNW 9.2 mph 19.6 mph N/A   Clear
10:53 PM 37.0 °F 31.6 °F 25.0 °F 62% 30.14 in 10.0 mi NW 6.9 mph - N/A   Overcast
11:53 PM 36.0 °F 29.0 °F 24.1 °F 62% 30.14 in 10.0 mi WNW 9.2 mph 19.6 mph N/A   Overcast